Altus, OK

5:27 PM CDT on September 23, 2017 (GMT -0500)
Altus Municipal

Weather History for KAXS - March, 2014

Change the Weather History Date:

Tuesday, March 4, 2014

  Actual Average (KLTS) Record (KLTS)
Temperature  
Mean Temperature 37 °F -  
Max Temperature 54 °F 58 °F 84 °F (2009)
Min Temperature 20 °F 32 °F 10 °F (2002)
Degree Days  
Heating Degree Days 28    
Moisture  
Dew Point 22 °F    
Average Humidity 60    
Maximum Humidity 88    
Minimum Humidity 31    
Precipitation  
Precipitation 0.00 in - - ()
Sea Level Pressure  
Sea Level Pressure 30.08 in    
Wind  
Wind Speed 8 mph (SSE)    
Max Wind Speed 20 mph    
Max Gust Speed 22 mph    
Visibility 10 miles    
Events      
Averages and records for this station are not official NWS values.
T = Trace of Precipitation, MM = Missing Value Source: NWS Daily Summary

Daily Weather History Graph

Daily Weather History Graph

Search for Another Location

Airport or City:

Trip Planner

Search our weather history database for the weather conditions in past years. The results will help you decide how hot, cold, wet, or windy it might be!

Date:

Astronomy

Mar. 04, 2014 Rise Set
Actual Time 7:02 AM CST 6:35 PM CST
Civil Twilight 6:37 AM CST 7:01 PM CST
Nautical Twilight 6:08 AM CST 7:30 PM CST
Astronomical Twilight 5:39 AM CST 7:59 PM CST
Moon 8:59 AM CST (3/4) 10:33 PM CST (3/4)
Length of Visible Light 12h 23m
Length of Day
11h 33m
Waxing Crescent, 15% of the Moon is Illuminated
Mar 4
Waxing Crescent
Mar 8
First Quarter
Mar 16
Full
Mar 23
Last Quarter
Mar 30
New

Hourly Weather History & Observations

Time (CST) Temp. Windchill Dew Point Humidity Pressure Visibility Wind Dir Wind Speed Gust Speed Precip Events Conditions
12:15 AM 24.8 °F 16.9 °F 17.8 °F 75% 30.25 in 10.0 mi SSE 6.9 mph - N/A   Clear
12:35 AM 24.6 °F 15.8 °F 17.6 °F 75% 30.25 in 10.0 mi SSE 8.1 mph - N/A   Clear
12:55 AM 24.1 °F 16.0 °F 17.4 °F 76% 30.24 in 10.0 mi SSE 6.9 mph - N/A   Clear
1:15 AM 23.7 °F 14.7 °F 17.4 °F 77% 30.23 in 10.0 mi SSE 8.1 mph - N/A   Clear
1:35 AM 23.7 °F 15.6 °F 17.4 °F 77% 30.23 in 10.0 mi SSE 6.9 mph - N/A   Clear
1:55 AM 23.5 °F 16.4 °F 17.2 °F 77% 30.23 in 10.0 mi SSE 5.8 mph - N/A   Clear
2:15 AM 22.8 °F 18.2 °F 17.4 °F 80% 30.23 in 10.0 mi SSE 3.5 mph - N/A   Clear
2:35 AM 22.3 °F 16.1 °F 17.1 °F 80% 30.22 in 10.0 mi SSE 4.6 mph - N/A   Clear
2:55 AM 22.3 °F 16.1 °F 17.6 °F 82% 30.21 in 10.0 mi SE 4.6 mph - N/A   Clear
3:15 AM 22.6 °F 16.5 °F 18.0 °F 82% 30.21 in 10.0 mi SSE 4.6 mph - N/A   Clear
3:35 AM 22.8 °F 18.2 °F 18.1 °F 82% 30.19 in 10.0 mi SSE 3.5 mph - N/A   Clear
3:55 AM 22.1 °F 15.9 °F 18.1 °F 85% 30.18 in 10.0 mi SE 4.6 mph - N/A   Clear
4:15 AM 22.1 °F 17.4 °F 18.1 °F 85% 30.18 in 10.0 mi SE 3.5 mph - N/A   Clear
4:35 AM 21.9 °F 15.7 °F 18.1 °F 85% 30.16 in 10.0 mi SE 4.6 mph - N/A   Clear
4:43 AM 21.2 °F 14.9 °F 17.6 °F 86% 30.16 in 10.0 mi SE 4.6 mph - N/A   Clear
4:55 AM 21.4 °F - 17.8 °F 86% 30.16 in 10.0 mi Calm Calm - N/A   Clear
5:02 AM 21.2 °F - 17.6 °F 86% 30.16 in 10.0 mi Calm Calm - N/A   Clear
5:15 AM 20.8 °F 14.4 °F 17.6 °F 87% 30.16 in 10.0 mi SSE 4.6 mph - N/A   Clear
5:40 AM 21.2 °F 16.4 °F 17.4 °F 85% 30.15 in 10.0 mi SE 3.5 mph - N/A   Clear
5:44 AM 21.2 °F - 17.6 °F 86% 30.15 in 10.0 mi Calm Calm - N/A   Clear
5:55 AM 20.7 °F - 17.2 °F 87% 30.16 in 10.0 mi Calm Calm - N/A   Clear
6:03 AM 21.2 °F - 17.6 °F 86% 30.16 in 10.0 mi Calm Calm - N/A   Clear
6:15 AM 20.3 °F 13.8 °F 16.7 °F 86% 30.15 in 10.0 mi ESE 4.6 mph - N/A   Clear
6:35 AM 20.5 °F 12.8 °F 17.2 °F 87% 30.16 in 10.0 mi ESE 5.8 mph - N/A   Clear
6:55 AM 20.3 °F 12.5 °F 17.2 °F 88% 30.16 in 10.0 mi SE 5.8 mph - N/A   Clear
7:15 AM 20.8 °F 12.1 °F 17.4 °F 87% 30.17 in 10.0 mi SSE 6.9 mph - N/A   Clear
7:35 AM 21.2 °F 12.6 °F 17.4 °F 85% 30.17 in 10.0 mi SSE 6.9 mph - N/A   Clear
7:55 AM 22.8 °F 15.5 °F 18.3 °F 83% 30.18 in 10.0 mi SSE 5.8 mph - N/A   Clear
8:15 AM 24.4 °F 15.6 °F 18.7 °F 79% 30.17 in 10.0 mi SSE 8.1 mph - N/A   Clear
8:35 AM 26.4 °F 16.6 °F 18.7 °F 73% 30.16 in 10.0 mi SSE 10.4 mph - N/A   Clear
8:55 AM 28.0 °F 18.1 °F 19.2 °F 70% 30.16 in 10.0 mi South 11.5 mph - N/A   Clear
9:15 AM 29.8 °F 20.9 °F 19.4 °F 65% 30.16 in 10.0 mi South 10.4 mph - N/A   Clear
9:35 AM 31.6 °F 23.1 °F 20.1 °F 62% 30.16 in 10.0 mi South 10.4 mph - N/A   Clear
9:55 AM 33.1 °F 24.4 °F 20.3 °F 59% 30.14 in 10.0 mi South 11.5 mph - N/A   Clear
10:15 AM 35.4 °F 28.4 °F 20.3 °F 54% 30.13 in 10.0 mi South 9.2 mph - N/A   Clear
10:35 AM 36.3 °F 30.1 °F 19.0 °F 50% 30.12 in 10.0 mi South 8.1 mph - N/A   Clear
10:55 AM 38.5 °F 31.6 °F 20.3 °F 48% 30.11 in 10.0 mi South 10.4 mph - N/A   Clear
11:15 AM 40.1 °F 33.2 °F 20.3 °F 45% 30.10 in 10.0 mi SSE 11.5 mph 18.4 mph N/A   Clear
11:35 AM 41.7 °F 35.2 °F 20.3 °F 42% 30.09 in 10.0 mi South 11.5 mph - N/A   Clear
11:55 AM 43.2 °F 37.0 °F 20.3 °F 40% 30.09 in 10.0 mi South 11.5 mph 16.1 mph N/A   Clear
12:15 PM 44.6 °F 39.7 °F 20.1 °F 38% 30.09 in 10.0 mi South 9.2 mph - N/A   Clear
12:35 PM 46.2 °F 41.7 °F 20.8 °F 37% 30.09 in 10.0 mi SSE 9.2 mph - N/A   Clear
12:55 PM 47.7 °F - 20.7 °F 34% 30.07 in 10.0 mi South 11.5 mph 16.1 mph N/A   Clear
1:15 PM 49.5 °F - 21.4 °F 33% 30.06 in 10.0 mi South 12.7 mph - N/A   Clear
1:35 PM 50.0 °F - 21.6 °F 33% 30.04 in 10.0 mi South 13.8 mph 20.7 mph N/A   Clear
1:55 PM 51.4 °F - 22.3 °F 32% 30.02 in 10.0 mi South 15.0 mph 20.7 mph N/A   Clear
2:15 PM 51.8 °F - 22.5 °F 32% 30.00 in 10.0 mi SSE 17.3 mph - N/A   Clear
2:35 PM 53.4 °F - 23.5 °F 31% 29.99 in 10.0 mi South 11.5 mph - N/A   Clear
2:55 PM 53.8 °F - 23.4 °F 31% 29.98 in 10.0 mi SSE 13.8 mph 20.7 mph N/A   Clear
3:20 PM 54.1 °F - 24.1 °F 31% 29.97 in 10.0 mi South 16.1 mph 19.6 mph N/A   Clear
3:35 PM 54.5 °F - 23.9 °F 31% 29.96 in 10.0 mi South 16.1 mph - N/A   Clear
3:55 PM 54.9 °F - 24.3 °F 31% 29.96 in 10.0 mi SE 16.1 mph 20.7 mph N/A   Clear
4:20 PM 54.5 °F - 25.2 °F 32% 29.95 in 10.0 mi SSE 11.5 mph 21.9 mph N/A   Clear
4:35 PM 54.7 °F - 25.2 °F 32% 29.95 in 10.0 mi SSE 17.3 mph 21.9 mph N/A   Clear
4:55 PM 53.8 °F - 24.8 °F 33% 29.94 in 10.0 mi SSE 18.4 mph 21.9 mph N/A   Clear
5:15 PM 54.0 °F - 25.5 °F 33% 29.94 in 10.0 mi SSE 19.6 mph - N/A   Clear
5:35 PM 53.6 °F - 25.3 °F 34% 29.95 in 10.0 mi SSE 17.3 mph 20.7 mph N/A   Clear
5:55 PM 52.7 °F - 25.7 °F 35% 29.95 in 10.0 mi SSE 13.8 mph - N/A   Clear
6:15 PM 51.1 °F - 26.1 °F 38% 29.94 in 10.0 mi SE 13.8 mph - N/A   Clear
6:35 PM 50.0 °F - 25.7 °F 39% 29.95 in 10.0 mi SE 12.7 mph - N/A   Clear
6:55 PM 48.7 °F - 26.4 °F 42% 29.95 in 10.0 mi SE 11.5 mph - N/A   Clear
7:15 PM 47.5 °F - 26.8 °F 45% 29.95 in 10.0 mi ESE 9.2 mph - N/A   Clear
7:35 PM 45.3 °F 40.1 °F 27.5 °F 50% 29.95 in 10.0 mi ESE 10.4 mph - N/A   Clear
7:55 PM 43.9 °F 38.3 °F 27.5 °F 53% 29.95 in 10.0 mi ESE 10.4 mph - N/A   Clear
8:15 PM 43.2 °F 36.6 °F 27.9 °F 55% 29.95 in 10.0 mi ESE 12.7 mph - N/A   Clear
8:35 PM 43.9 °F 37.2 °F 27.7 °F 53% 29.95 in 10.0 mi SE 13.8 mph - N/A   Clear
8:55 PM 43.2 °F 36.2 °F 28.2 °F 56% 29.95 in 10.0 mi SE 13.8 mph - N/A   Clear
9:15 PM 43.2 °F 35.9 °F 28.0 °F 55% 29.95 in 10.0 mi SE 15.0 mph - N/A   Clear
9:35 PM 43.2 °F 36.6 °F 27.7 °F 54% 29.95 in 10.0 mi SE 12.7 mph 19.6 mph N/A   Clear
9:55 PM 42.4 °F 36.1 °F 27.9 °F 56% 29.96 in 10.0 mi ESE 11.5 mph - N/A   Clear
10:15 PM 41.7 °F 34.4 °F 27.5 °F 57% 29.97 in 10.0 mi SE 13.8 mph - N/A   Clear
10:35 PM 41.2 °F 33.7 °F 27.5 °F 58% 29.96 in 10.0 mi SE 13.8 mph - N/A   Clear
10:55 PM 41.4 °F 34.3 °F 27.1 °F 57% 29.97 in 10.0 mi SE 12.7 mph - N/A   Clear
11:15 PM 41.0 °F 33.5 °F 27.0 °F 57% 29.97 in 10.0 mi SE 13.8 mph - N/A   Clear
11:35 PM 40.6 °F 33.0 °F 27.0 °F 58% 29.96 in 10.0 mi ESE 13.8 mph - N/A   Clear
11:55 PM 40.1 °F 32.4 °F 26.8 °F 59% 29.96 in 10.0 mi ESE 13.8 mph - N/A   Clear